Flag for Germany Weather past 2 weeks in Zerbst/Anhalt, Saxony-Anhalt, Germany

Now
38 °F

Passing clouds.


Feels Like: 38 °F
Forecast: 39 / 60 °F
Wind: 2 mph from Southwest

Location: Magdeburg

Current Time: Apr 19, 2015 at 2:08:22 AM

Latest Report: Apr 19, 2015 at 1:00 AM


Visibility: 15 mi

Pressure: 30.24 "Hg

Humidity: 76%

Dew point: 32 °F

Location of Zerbst/AnhaltLocation

Historic Weather in Zerbst/Anhalt — Graph

°F

Zerbst/Anhalt temperature yesterday

Maximum temperature yesterday: 54 °F (at 6:00 PM)
Minimum temperature yesterday: 32 °F (at 7:00 AM)
Average temperature yesterday: 44 °F

Past Weeks' High & Low Weather Summary

 TemperatureHumidityPressure
High74 °F (Apr 15, 4:00 PM)95% (Apr 10, 7:00 AM)30.59 "Hg (Apr 10, 7:00 AM)
Low29 °F (Apr 6, 7:00 AM)23% (Apr 12, 4:00 PM)29.87 "Hg (Apr 15, 7:00 PM)
Average48 °F64%30.23 "Hg
* Reported Apr 4 1:00 AM — Apr 19 1:00 AM, Zerbst/Anhalt, Weather by CustomWeather, © 2015

Note: Actual official high and low records may vary slightly from our data, if they occured in-between our weather recording intervals... More about our weather records

Advertising

Zerbst/Anhalt weather history for previous 24 hours

 ConditionsComfort  
Time TempWeatherWind HumidityBarometerVisibility
1:00 AM
Sun, Apr 19
38 °FPassing clouds.2 mph76%30.24 "Hg15 mi
12:00 AM40 °FPassing clouds.1 mph75%30.24 "Hg11 mi
11:00 PM
Sat, Apr 18
41 °FPassing clouds.1 mph71%30.24 "Hg16 mi
10:00 PM44 °FClear.1 mph62%30.25 "Hg34 mi
9:00 PM46 °FPassing clouds.1 mph59%30.24 "Hg31 mi
8:00 PM51 °FSunny.2 mph45%30.24 "Hg37 mi
7:00 PM53 °FPassing clouds.2 mph41%30.24 "Hg37 mi
6:00 PM54 °FScattered clouds.3 mph38%30.25 "Hg37 mi
4:00 PM54 °FPartly sunny.5 mph39%30.28 "Hg37 mi
3:00 PM54 °FPartly sunny.2 mph41%30.29 "Hg37 mi
2:00 PM51 °FPartly sunny.3 mph41%30.30 "Hg37 mi
1:00 PM50 °FPartly sunny.2 mph47%30.32 "Hg37 mi
12:00 PM47 °FPartly sunny.3 mph50%30.32 "Hg37 mi
10:00 AM44 °FPassing clouds.2 mph61%30.32 "Hg31 mi
9:00 AM42 °FSunny.1 mph76%30.31 "Hg28 mi
8:00 AM37 °FSunny.1 mph86%30.30 "Hg28 mi
7:00 AM32 °FSunny.1 mph95%30.28 "Hg25 mi
6:00 AM33 °FClear.2 mph92%30.26 "Hg28 mi
4:00 AM36 °FPassing clouds.2 mph84%30.23 "Hg31 mi
3:00 AM37 °FClear.2 mph82%30.22 "Hg37 mi
2:00 AM39 °FClear.2 mph77%30.20 "Hg43 mi
Weather by CustomWeather, © 2015

See weather overviewHow to use our weather pages